This is the latest recevied weather packets stored in our database for station/object VE4GLS. If no packets are shown the sender has not sent any weather packets the latest 1 day(s).
| Time | Temp. | Humidity | Pressure | Rain* | Wind** | Luminosity | Snow |
|---|---|---|---|---|---|---|---|
| 1778002355 | 2.22° C | 65% | 1011.1 hPa | 0 mm | 6.26 m/s, 327° | - | - |
| 1778001982 | 2.22° C | 64% | 1011 hPa | 0 mm | 5.36 m/s, 309° | - | - |
| 1778001454 | 1.67° C | 66% | 1011 hPa | 0 mm | 5.81 m/s, 301° | - | - |
| 1778001382 | 1.67° C | 66% | 1011 hPa | 0 mm | 7.15 m/s, 323° | - | - |
| 1778000782 | 1.67° C | 66% | 1010.9 hPa | 0 mm | 8.05 m/s, 326° | - | - |
| 1778000554 | 1.67° C | 67% | 1010.9 hPa | 0 mm | 4.47 m/s, 345° | - | - |
| 1778000182 | 1.11° C | 69% | 1010.9 hPa | 0 mm | 5.81 m/s, 326° | - | - |
| 1777999656 | 1.11° C | 71% | 1010.8 hPa | 0 mm | 7.15 m/s, 319° | - | - |
| 1777999584 | 1.11° C | 70% | 1010.8 hPa | 0 mm | 5.36 m/s, 306° | - | - |
| 1777998983 | 1.11° C | 70% | 1010.8 hPa | 0 mm | 6.71 m/s, 308° | - | - |
| 1777998755 | 1.11° C | 70% | 1010.8 hPa | 0 mm | 6.71 m/s, 307° | - | - |
| 1777998383 | 1.11° C | 70% | 1010.8 hPa | 0 mm | 6.71 m/s, 309° | - | - |
| 1777997855 | 1.11° C | 70% | 1010.6 hPa | 0 mm | 5.81 m/s, 315° | - | - |
| 1777997783 | 1.11° C | 70% | 1010.6 hPa | 0 mm | 7.15 m/s, 312° | - | - |
| 1777997184 | 1.11° C | 69% | 1010.5 hPa | 0 mm | 6.26 m/s, 302° | - | - |
| 1777996956 | 1.11° C | 70% | 1010.5 hPa | 0 mm | 6.26 m/s, 316° | - | - |
| 1777996583 | 0.56° C | 70% | 1010.5 hPa | 0 mm | 6.26 m/s, 309° | - | - |
| 1777996055 | 0.56° C | 71% | 1010.5 hPa | 0 mm | 6.26 m/s, 305° | - | - |
| 1777995983 | 0.56° C | 71% | 1010.5 hPa | 0 mm | 5.81 m/s, 296° | - | - |
| 1777995383 | 0.56° C | 71% | 1010.4 hPa | 0 mm | 6.71 m/s, 320° | - | - |
| 1777995155 | 0.56° C | 72% | 1010.4 hPa | 0 mm | 6.71 m/s, 330° | - | - |
| 1777994783 | 0.56° C | 71% | 1010.4 hPa | 0 mm | 6.71 m/s, 339° | - | - |
| 1777994256 | 0.56° C | 74% | 1010.3 hPa | 0 mm | 6.71 m/s, 321° | - | - |
| 1777994182 | 0.56° C | 74% | 1010.3 hPa | 0 mm | 5.81 m/s, 319° | - | - |
| 1777993583 | 0.56° C | 74% | 1010.3 hPa | 0 mm | 4.02 m/s, 325° | - | - |
* Rain latest hour (hover to see other rain measurements)
** Current wind speed in m/s (hover to see current wind gust speed)